{"data":{"norad_id":49729,"intl_designator":"2021-115F","name":"STARLINK-3251","alt_names":[],"object_type":"PAYLOAD","status":"ACTIVE","operator":null,"country":"US","launch_date":"2021-12-02","launch_site_code":"AFETR","launch_vehicle":null,"mission":null,"orbit_class":"UNKNOWN","rcs_meters":null,"size_class":null,"mass_kg":null,"dimensions":null,"purposes":["comms"],"wikipedia_slug":null,"has_3d_model":false,"image_url":null,"decayed_at":null,"tle_current":{"epoch":"2026-05-25T01:37:03.221760Z","epoch_age_seconds":62589,"freshness":"FRESH","line1":"1 49729U 21115F   26145.06739840 -.00000063  00000+0  14124-4 0  9991","line2":"2 49729  53.2136 176.1338 0001194  77.6566 282.4559 15.08836013246927","mean_motion":15.08836013,"eccentricity":0.0001194,"inclination_deg":53.2136,"raan_deg":176.1338,"arg_perigee_deg":77.6566,"mean_anomaly_deg":282.4559,"bstar":1.4124e-5,"rev_number":24692,"period_min":95.437806865232,"perigee_km":538.92957928138,"apogee_km":540.58157202845,"semimajor_km":6917.8925756549,"source":"CELESTRAK","updated_at":"2026-05-25T13:38:16.831949Z"}}}